| time (UTC) | temp F | wind direction | speed MPH | gust MPH | rain 1hr in | rain 24hr in | rain mn in | humidity % | barometer mb |
| 20260506023030 | 76 | 102 | 0.0 | 0.0 | 0.00 | 0.01 | 0.01 | 76 | 1009.0 |
| 20260506021522 | 76 | 119 | 0.0 | 0.0 | 0.00 | 0.01 | 0.01 | 76 | 1008.7 |
| 20260506020022 | 76 | 75 | 0.0 | 0.0 | 0.00 | 0.01 | 0.01 | 77 | 1008.5 |
| 20260506014528 | 77 | 110 | 0.0 | 0.0 | 0.00 | 0.01 | 0.01 | 78 | 1008.3 |
| 20260506013025 | 77 | 111 | 0.0 | 0.0 | 0.00 | 0.01 | 0.01 | 79 | 1008.2 |
| 20260506011528 | 77 | 129 | 0.0 | 2.0 | 0.00 | 0.01 | 0.01 | 79 | 1007.9 |
| 20260506010021 | 77 | 119 | 0.0 | 0.0 | 0.00 | 0.01 | 0.01 | 80 | 1007.8 |
| 20260506004524 | 78 | 108 | 0.0 | 0.0 | 0.00 | 0.01 | 0.01 | 80 | 1007.6 |
| 20260506003033 | 78 | 84 | 0.0 | 0.0 | 0.00 | 0.01 | 0.01 | 80 | 1007.5 |
| 20260506001534 | 78 | 117 | 0.0 | 0.0 | 0.00 | 0.01 | 0.01 | 81 | 1007.5 |
| 20260506000020 | 78 | 116 | 0.0 | 0.0 | 0.00 | 0.01 | 0.01 | 81 | 1007.6 |
| 20260505234527 | 79 | 173 | 0.0 | 5.0 | 0.00 | 0.01 | 0.01 | 81 | 1007.4 |
| 20260505233003 | 79 | 72 | 1.0 | 8.0 | 0.00 | 0.01 | 0.01 | 80 | 1007.6 |
| 20260505231509 | 79 | 117 | 0.0 | 0.0 | 0.00 | 0.01 | 0.01 | 80 | 1007.6 |
| 20260505230025 | 80 | 106 | 0.0 | 0.0 | 0.00 | 0.01 | 0.01 | 79 | 1007.5 |
| 20260505224516 | 80 | 115 | 0.0 | 0.0 | 0.00 | 0.01 | 0.01 | 80 | 1007.4 |
| 20260505223021 | 80 | 126 | 0.0 | 0.0 | 0.00 | 0.01 | 0.01 | 80 | 1007.6 |
| 20260505221505 | 80 | 108 | 0.0 | 0.0 | 0.00 | 0.01 | 0.01 | 80 | 1007.6 |
| 20260505220008 | 80 | 120 | 0.0 | 4.0 | 0.00 | 0.01 | 0.01 | 80 | 1007.7 |
| 20260505214516 | 80 | 133 | 0.0 | 4.0 | 0.00 | 0.01 | 0.01 | 80 | 1007.9 |
| 20260505213017 | 81 | 101 | 0.0 | 7.0 | 0.00 | 0.01 | 0.01 | 79 | 1008.0 |
| 20260505211524 | 80 | 104 | 0.0 | 6.0 | 0.00 | 0.01 | 0.01 | 80 | 1008.2 |
| 20260505210012 | 81 | 117 | 0.0 | 0.0 | 0.00 | 0.01 | 0.01 | 79 | 1008.2 |
| 20260505204509 | 81 | 108 | 0.0 | 0.0 | 0.00 | 0.01 | 0.01 | 79 | 1008.6 |
| 20260505203019 | 81 | 114 | 0.0 | 6.0 | 0.00 | 0.01 | 0.01 | 79 | 1008.9 |
| 20260505201521 | 81 | 108 | 0.0 | 0.0 | 0.00 | 0.01 | 0.01 | 79 | 1009.1 |
| 20260505200024 | 81 | 119 | 0.0 | 7.0 | 0.00 | 0.01 | 0.01 | 79 | 1009.2 |
| 20260505194509 | 81 | 103 | 0.0 | 6.0 | 0.00 | 0.01 | 0.01 | 79 | 1009.2 |
| 20260505193012 | 80 | 126 | 0.0 | 9.0 | 0.00 | 0.01 | 0.01 | 79 | 1009.2 |
| 20260505191518 | 80 | 113 | 0.0 | 0.0 | 0.00 | 0.01 | 0.01 | 80 | 1009.4 |
| 20260505190023 | 79 | 110 | 0.0 | 0.0 | 0.00 | 0.01 | 0.01 | 80 | 1009.5 |
| 20260505184525 | 79 | 119 | 0.0 | 0.0 | 0.00 | 0.01 | 0.01 | 80 | 1009.7 |
| 20260505183011 | 79 | 113 | 0.0 | 0.0 | 0.00 | 0.01 | 0.01 | 80 | 1009.8 |
| 20260505181514 | 79 | 127 | 0.0 | 0.0 | 0.00 | 0.01 | 0.01 | 80 | 1009.9 |
| 20260505180038 | 80 | 136 | 0.0 | 0.0 | 0.00 | 0.01 | 0.01 | 79 | 1009.9 |
| 20260505174522 | 80 | 115 | 0.0 | 0.0 | 0.00 | 0.01 | 0.01 | 80 | 1009.9 |
| 20260505173025 | 79 | 105 | 0.0 | 0.0 | 0.00 | 0.01 | 0.01 | 80 | 1010.1 |
| 20260505171511 | 80 | 104 | 0.0 | 0.0 | 0.00 | 0.01 | 0.01 | 79 | 1010.2 |
| 20260505170017 | 79 | 106 | 0.0 | 0.0 | 0.00 | 0.01 | 0.01 | 80 | 1010.3 |
| 20260505164522 | 79 | 104 | 0.0 | 0.0 | 0.00 | 0.01 | 0.01 | 79 | 1010.3 |
| 20260505163029 | 79 | 108 | 0.0 | 0.0 | 0.00 | 0.01 | 0.01 | 80 | 1010.2 |
| 20260505161526 | 79 | 164 | 0.0 | 0.0 | 0.00 | 0.01 | 0.01 | 80 | 1010.3 |
| 20260505153021 | 79 | 116 | 0.0 | 0.0 | 0.00 | 0.01 | 0.01 | 79 | 1010.0 |
| 20260505151526 | 78 | 105 | 0.0 | 0.0 | 0.00 | 0.01 | 0.01 | 80 | 1009.9 |
| 20260505124512 | 73 | 117 | 0.0 | 0.0 | 0.00 | 0.00 | 0.00 | 76 | 1009.6 |
| 20260505123023 | 0 | 0.0 | 0.0 | 0.00 | 0.00 | 0.00 | 1009.3 | ||
| 20260505121510 | 0 | 0.0 | 0.0 | 0.00 | 0.00 | 0.00 | 1009.2 | ||
| 20260505120019 | 0 | 0.0 | 0.0 | 0.00 | 0.00 | 0.00 | 1009.5 | ||
| 20260505114516 | 0 | 0.0 | 0.0 | 0.00 | 0.00 | 0.00 | 1009.3 | ||
| 20260505113012 | 0 | 0.0 | 0.0 | 0.00 | 0.00 | 0.00 | 1009.1 | ||
| 20260505111519 | 0 | 0.0 | 0.0 | 0.00 | 0.00 | 0.00 | 1009.5 | ||
| 20260505101529 | 0 | 0.0 | 0.0 | 0.00 | 0.00 | 0.00 | 1009.4 | ||
| 20260505100035 | 0 | 0.0 | 0.0 | 0.00 | 0.00 | 0.00 | 1009.2 | ||
| 20260505094504 | 70 | 112 | 0.0 | 0.0 | 0.00 | 0.00 | 0.00 | 77 | 1009.3 |
| 20260505093016 | 72 | 123 | 0.0 | 0.0 | 0.00 | 0.00 | 0.00 | 77 | 1009.6 |
| 20260505091519 | 72 | 113 | 0.0 | 0.0 | 0.00 | 0.00 | 0.00 | 78 | 1009.5 |
| 20260505090017 | 72 | 126 | 0.0 | 0.0 | 0.00 | 0.00 | 0.00 | 78 | 1009.6 |
| 20260505084519 | 72 | 110 | 0.0 | 0.0 | 0.00 | 0.00 | 0.00 | 79 | 1009.5 |
| 20260505083006 | 72 | 108 | 0.0 | 0.0 | 0.00 | 0.00 | 0.00 | 80 | 1009.6 |
| 20260505081512 | 72 | 126 | 0.0 | 0.0 | 0.00 | 0.00 | 0.00 | 79 | 1009.6 |
| 20260505080015 | 72 | 105 | 0.0 | 0.0 | 0.00 | 0.00 | 0.00 | 79 | 1009.8 |
| 20260505074521 | 71 | 131 | 0.0 | 0.0 | 0.00 | 0.00 | 0.00 | 79 | 1009.8 |
| 20260505073033 | 71 | 117 | 0.0 | 0.0 | 0.00 | 0.00 | 0.00 | 79 | 1009.9 |
| 20260505071508 | 71 | 108 | 0.0 | 0.0 | 0.00 | 0.00 | 0.00 | 79 | 1010.1 |
| 20260505070014 | 71 | 115 | 0.0 | 0.0 | 0.00 | 0.00 | 0.00 | 79 | 1010.2 |
| 20260505064520 | 70 | 115 | 0.0 | 0.0 | 0.00 | 0.00 | 0.00 | 79 | 1010.5 |
| 20260505063022 | 70 | 124 | 0.0 | 0.0 | 0.00 | 0.00 | 0.00 | 78 | 1010.9 |
| 20260505061525 | 70 | 130 | 0.0 | 0.0 | 0.00 | 0.00 | 0.00 | 79 | 1010.9 |
| 20260505060012 | 69 | 103 | 0.0 | 0.0 | 0.00 | 0.00 | 0.00 | 78 | 1010.9 |
| 20260505054516 | 69 | 120 | 0.0 | 0.0 | 0.00 | 0.00 | 0.00 | 79 | 1011.1 |
| 20260505053030 | 69 | 120 | 0.0 | 0.0 | 0.00 | 0.00 | 0.00 | 79 | 1011.1 |
| 20260505051535 | 69 | 120 | 0.0 | 0.0 | 0.00 | 0.00 | 0.00 | 80 | 1011.1 |
| 20260505041525 | 69 | 120 | 0.0 | 0.0 | 0.00 | 0.00 | 0.00 | 81 | 1011.6 |
| 20260505040025 | 69 | 120 | 0.0 | 0.0 | 0.00 | 0.00 | 0.00 | 81 | 1011.6 |
| 20260505034522 | 70 | 120 | 0.0 | 0.0 | 0.00 | 0.00 | 0.00 | 81 | 1011.8 |
| 20260505033012 | 70 | 120 | 0.0 | 0.0 | 0.00 | 0.00 | 0.00 | 80 | 1011.7 |
| 20260505031521 | 70 | 120 | 0.0 | 0.0 | 0.00 | 0.00 | 0.00 | 80 | 1011.7 |
| 20260505030023 | 70 | 116 | 0.0 | 0.0 | 0.00 | 0.00 | 0.00 | 80 | 1011.8 |
| 20260505024526 | 71 | 112 | 0.0 | 0.0 | 0.00 | 0.00 | 0.00 | 80 | 1011.9 |